Regional Weather Roundup
Issued by NWS

Home | Current Version | Previous Version | Text Only | Print | Product List | Glossary On
Versions: 1 2 3 4 5 6 7 8 9 10 11 12 13 14 15 16 17 18 19 20 21 22 23 24 25 26 27 28 29 30 31 32 33 34 35 36 37 38 39 40 41 42 43 44 45 46 47 48 49 50
000
ASCA42 TJSJ 050910
RWRPR
PUERTO RICO/U.S. VIRGIN ISLANDS HOURLY WEATHER ROUNDUP
NATIONAL WEATHER SERVICE SAN JUAN PR
500 AM AST TUE MAY 05 2015

PRZ001-004-051000-
PUERTO RICO

CITY           SKY/WX    TMP DP  RH WIND       PRES   REMARKS
SAN JUAN LMM   PTCLDY    79  72  78 E6        30.08R
PONCE          PTCLDY    72  63  73 NE7       30.01S
CEIBA          MOCLDY    81  72  74 NE7       30.10R
$$

PRZ006-007-051000-
U.S. VIRGIN ISLANDS

CITY           SKY/WX    TMP DP  RH WIND       PRES   REMARKS
CHARLOTTE AMA  CLEAR     79  70  73 NE5       30.07R
CHRISTIANSTED  MOCLDY    79  70  73 E10       30.07R
$$

HOURLY WEATHER ROUNDUP FOR THE NEWS MEDIA

CITY           SKY/WX    TMP DP  RH WIND       PRES   REMARKS
ORLANDO        CLOUDY    68  65  90 NE6       30.15F
NEW YORK       PTCLDY    56  48  74 CALM      30.17R
NEWARK         PTCLDY    65  48  54 SW7       30.16R
CHICAGO        RAIN      51  47  86 NE10      30.18S
HARTFORD       PTCLDY    56  44  64 SW8       30.13F
BOSTON         PTCLDY    67  43  41 SW17      30.09R
DALLAS         MOCLDY    66  56  70 SE7       30.02S
PHILADELPHIA   PTCLDY    63  51  65 SW7       30.18S
LOS ANGELES    CLOUDY    58  51  78 E3        29.99F
WASHINGTON DC  PTCLDY    61  53  75 S7        30.21S



USA.gov is the U.S. government's official web portal to all federal, state and local government web resources and services.